1593208817,2020-06-27 00:00,66.32,990.90,1016.69,214,21.83,15.29,-23,1
1593208877,2020-06-27 00:01,65.65,990.93,1016.71,214,21.80,15.10,-23,1
1593208938,2020-06-27 00:02,65.60,991.00,1016.78,214,21.83,15.12,-23,1
1593208998,2020-06-27 00:03,66.00,991.02,1016.81,214,21.85,15.23,-23,1
1593209058,2020-06-27 00:04,66.23,991.06,1016.85,214,21.86,15.30,-23,1
1593209119,2020-06-27 00:05,66.00,991.05,1016.84,214,21.88,15.26,-23,1
1593209179,2020-06-27 00:06,66.08,991.14,1016.92,214,21.87,15.27,-23,1
1593209239,2020-06-27 00:07,66.29,991.20,1016.98,214,21.88,15.33,-23,1
1593209299,2020-06-27 00:08,66.34,991.28,1017.06,214,21.90,15.36,-23,1
1593209360,2020-06-27 00:09,66.43,991.31,1017.09,214,21.92,15.40,-24,1
1593209420,2020-06-27 00:10,67.11,991.28,1017.06,214,21.81,15.45,-23,1
1593209480,2020-06-27 00:11,67.35,991.37,1017.15,214,21.76,15.46,-22,1
1593209541,2020-06-27 00:12,66.96,991.34,1017.12,214,21.84,15.45,-22,1
1593209601,2020-06-27 00:13,67.01,991.42,1017.20,214,21.87,15.49,-23,1
1593209661,2020-06-27 00:14,67.23,991.41,1017.20,214,21.84,15.51,-23,1
1593209721,2020-06-27 00:15,66.69,991.41,1017.19,214,21.88,15.42,-23,1
1593209782,2020-06-27 00:16,66.66,991.42,1017.20,214,21.92,15.45,-23,1
1593209842,2020-06-27 00:17,66.80,991.29,1017.07,214,21.94,15.50,-24,1
1593209902,2020-06-27 00:18,66.85,991.35,1017.13,214,21.95,15.53,-23,1
1593209963,2020-06-27 00:19,67.09,991.39,1017.18,214,21.97,15.60,-23,1
1593210023,2020-06-27 00:20,66.98,991.39,1017.17,214,21.97,15.58,-22,1
1593210083,2020-06-27 00:21,66.97,991.40,1017.18,214,21.97,15.57,-25,1
1593210144,2020-06-27 00:22,67.06,991.40,1017.18,214,21.93,15.56,-22,1
1593210204,2020-06-27 00:23,67.13,991.37,1017.16,214,21.97,15.61,-24,1
1593210264,2020-06-27 00:24,67.24,991.41,1017.19,214,21.98,15.65,-23,1
1593210324,2020-06-27 00:25,67.24,991.43,1017.22,214,21.98,15.65,-21,1
1593210385,2020-06-27 00:26,67.15,991.43,1017.21,214,21.93,15.58,-22,1
1593210445,2020-06-27 00:27,67.36,991.45,1017.23,214,21.92,15.61,-23,1
1593210505,2020-06-27 00:28,66.79,991.40,1017.19,214,21.75,15.32,-22,1
1593210565,2020-06-27 00:29,67.00,991.40,1017.18,214,21.73,15.35,-22,1
1593210626,2020-06-27 00:30,67.32,991.37,1017.15,214,21.75,15.44,-23,1
1593210686,2020-06-27 00:31,67.39,991.34,1017.13,214,21.70,15.41,-23,1
1593210746,2020-06-27 00:32,67.54,991.28,1017.06,214,21.72,15.47,-23,1
1593210807,2020-06-27 00:33,68.23,991.32,1017.11,214,21.66,15.57,-22,1
1593210867,2020-06-27 00:34,68.43,991.29,1017.07,214,21.69,15.64,-23,1
1593210927,2020-06-27 00:35,67.76,991.29,1017.07,214,21.68,15.48,-23,1
1593210987,2020-06-27 00:36,67.18,991.29,1017.07,214,21.75,15.41,-23,1
1593211048,2020-06-27 00:37,67.07,991.27,1017.05,214,21.73,15.37,-23,1
1593211108,2020-06-27 00:38,66.82,991.23,1017.01,214,21.80,15.38,-23,1
1593211168,2020-06-27 00:39,66.61,991.18,1016.97,214,21.78,15.31,-23,1
1593211229,2020-06-27 00:40,65.93,991.13,1016.92,214,21.83,15.19,-23,1
1593211289,2020-06-27 00:41,66.02,991.11,1016.89,214,21.83,15.22,-23,1
1593211349,2020-06-27 00:42,66.12,991.15,1016.93,214,21.85,15.26,-23,1
1593211409,2020-06-27 00:43,66.48,991.16,1016.95,214,21.86,15.35,-23,1
1593211470,2020-06-27 00:44,66.51,991.18,1016.96,214,21.86,15.36,-23,1
1593211530,2020-06-27 00:45,66.82,991.22,1017.00,214,21.83,15.40,-23,1
1593211590,2020-06-27 00:46,67.24,991.19,1016.97,214,21.85,15.52,-23,1
1593211650,2020-06-27 00:47,67.17,991.19,1016.97,214,21.84,15.49,-22,1
1593211711,2020-06-27 00:48,67.05,991.28,1017.06,214,21.83,15.46,-23,1
1593211771,2020-06-27 00:49,67.13,991.28,1017.06,214,21.84,15.49,-22,1
1593211831,2020-06-27 00:50,67.36,991.29,1017.07,214,21.83,15.53,-23,1
1593211892,2020-06-27 00:51,66.19,991.28,1017.07,214,21.87,15.30,-24,1
1593211952,2020-06-27 00:52,67.09,991.25,1017.03,214,21.84,15.48,-23,1
1593212012,2020-06-27 00:53,67.60,991.27,1017.05,214,21.86,15.62,-23,1
1593212072,2020-06-27 00:54,67.49,991.29,1017.07,214,21.86,15.59,-22,1
1593212133,2020-06-27 00:55,67.29,991.26,1017.04,214,21.84,15.52,-22,1
1593212193,2020-06-27 00:56,67.16,991.26,1017.04,214,21.83,15.48,-23,1
1593212253,2020-06-27 00:57,67.21,991.25,1017.03,214,21.81,15.48,-23,1
1593212314,2020-06-27 00:58,67.47,991.24,1017.02,214,21.79,15.52,-24,1
1593212374,2020-06-27 00:59,67.49,991.23,1017.01,214,21.78,15.51,-22,1
1593212434,2020-06-27 01:00,67.76,991.20,1016.99,214,21.77,15.57,-22,1
1593212494,2020-06-27 01:01,67.99,991.21,1016.99,214,21.64,15.49,-23,1
1593212555,2020-06-27 01:02,68.04,991.29,1017.07,214,21.69,15.55,-23,1
1593212615,2020-06-27 01:03,68.52,991.40,1017.18,214,21.52,15.50,-23,1
1593212675,2020-06-27 01:04,68.06,991.41,1017.20,214,21.54,15.41,-22,1
1593212736,2020-06-27 01:05,67.81,991.41,1017.19,214,21.57,15.39,-24,1
1593212796,2020-06-27 01:06,68.22,991.40,1017.18,214,21.62,15.53,-23,1
1593212856,2020-06-27 01:07,68.12,991.28,1017.06,214,21.61,15.50,-23,1
1593212916,2020-06-27 01:08,67.48,991.26,1017.04,214,21.62,15.36,-23,1
1593212977,2020-06-27 01:09,67.92,991.22,1017.01,214,21.62,15.46,-23,1
1593213037,2020-06-27 01:10,67.84,991.20,1016.99,214,21.66,15.48,-23,1
1593213097,2020-06-27 01:11,67.84,991.18,1016.97,214,21.67,15.49,-24,1
1593213158,2020-06-27 01:12,68.06,991.15,1016.93,214,21.66,15.53,-24,1
1593213218,2020-06-27 01:13,67.77,991.15,1016.93,214,21.66,15.46,-23,1
1593213278,2020-06-27 01:14,67.69,991.10,1016.88,214,21.67,15.45,-21,1
1593213338,2020-06-27 01:15,67.68,991.15,1016.93,214,21.63,15.41,-23,1
1593213399,2020-06-27 01:16,66.93,991.20,1016.98,214,21.62,15.23,-23,1
1593213459,2020-06-27 01:17,67.89,991.23,1017.01,214,21.65,15.48,-24,1
1593213519,2020-06-27 01:18,67.97,991.27,1017.05,214,21.63,15.48,-22,1
1593213580,2020-06-27 01:19,68.41,991.33,1017.11,214,21.56,15.51,-23,1
1593213640,2020-06-27 01:20,67.88,991.35,1017.13,214,21.58,15.41,-24,1
1593213700,2020-06-27 01:21,68.10,991.40,1017.19,214,21.51,15.40,-22,1
1593213760,2020-06-27 01:22,68.41,991.36,1017.14,214,21.47,15.43,-22,1
1593213821,2020-06-27 01:23,68.45,991.39,1017.17,214,21.45,15.42,-23,1
1593213881,2020-06-27 01:24,68.56,991.37,1017.16,214,21.45,15.44,-22,1
1593213941,2020-06-27 01:25,68.52,991.39,1017.18,214,21.46,15.44,-22,1
1593214001,2020-06-27 01:26,68.63,991.38,1017.16,214,21.47,15.48,-23,1
1593214062,2020-06-27 01:27,68.53,991.48,1017.26,214,21.46,15.45,-23,1
1593214122,2020-06-27 01:28,68.32,991.45,1017.23,214,21.48,15.42,-21,1
1593214182,2020-06-27 01:29,68.69,991.47,1017.25,214,21.43,15.45,-22,1
1593214243,2020-06-27 01:30,67.09,991.48,1017.27,214,21.47,15.13,-22,1
1593214303,2020-06-27 01:31,67.93,991.45,1017.24,214,21.36,15.21,-23,1
1593214363,2020-06-27 01:32,67.77,991.45,1017.23,214,21.39,15.21,-23,1
1593214423,2020-06-27 01:33,67.64,991.40,1017.19,214,21.38,15.17,-23,1
1593214484,2020-06-27 01:34,67.12,991.39,1017.18,214,21.44,15.10,-23,1
1593214544,2020-06-27 01:35,67.93,991.43,1017.22,214,21.28,15.14,-22,1
1593214604,2020-06-27 01:36,67.62,991.45,1017.23,214,21.36,15.14,-22,1
1593214665,2020-06-27 01:37,67.23,991.47,1017.25,214,21.40,15.09,-23,1
1593214725,2020-06-27 01:38,67.41,991.43,1017.21,214,21.38,15.11,-23,1
1593214785,2020-06-27 01:39,67.97,991.52,1017.30,214,21.25,15.12,-23,1
1593214845,2020-06-27 01:40,67.48,991.50,1017.29,214,21.33,15.08,-23,1
1593214906,2020-06-27 01:41,68.02,991.54,1017.32,214,21.13,15.02,-23,1
1593214966,2020-06-27 01:42,67.28,991.45,1017.24,214,21.26,14.97,-23,1
1593215026,2020-06-27 01:43,67.10,991.52,1017.30,214,21.30,14.97,-22,1
1593215086,2020-06-27 01:44,67.65,991.51,1017.29,214,21.30,15.09,-22,1
1593215147,2020-06-27 01:45,67.99,991.62,1017.41,214,21.21,15.08,-22,1
1593215207,2020-06-27 01:46,68.09,991.59,1017.37,214,21.23,15.13,-23,1
1593215267,2020-06-27 01:47,67.96,991.55,1017.33,214,21.24,15.10,-22,1
1593215328,2020-06-27 01:48,68.06,991.54,1017.32,214,21.11,15.00,-22,1
1593215388,2020-06-27 01:49,68.03,991.44,1017.23,214,21.13,15.02,-23,1
1593215448,2020-06-27 01:50,67.53,991.41,1017.20,214,21.17,14.94,-22,1
1593215508,2020-06-27 01:51,67.51,991.32,1017.10,214,21.20,14.96,-24,1
1593215569,2020-06-27 01:52,67.32,991.30,1017.08,214,21.24,14.96,-24,1
1593215629,2020-06-27 01:53,67.25,991.28,1017.07,214,21.23,14.93,-23,1
1593215689,2020-06-27 01:54,67.28,991.18,1016.96,214,21.23,14.94,-23,1
1593215749,2020-06-27 01:55,66.86,991.16,1016.94,214,21.26,14.87,-22,1
1593215809,2020-06-27 01:56,67.01,991.18,1016.97,214,21.19,14.84,-22,1
1593215869,2020-06-27 01:57,67.75,991.21,1016.99,214,21.11,14.93,-24,1
1593215929,2020-06-27 01:58,67.35,991.29,1017.08,214,21.13,14.86,-21,1
1593215989,2020-06-27 01:59,66.88,991.20,1016.99,214,21.20,14.82,-22,1
1593216049,2020-06-27 02:00,66.71,991.17,1016.95,214,21.17,14.75,-22,1
1593216109,2020-06-27 02:01,67.08,991.16,1016.94,214,21.16,14.83,-24,1
1593216169,2020-06-27 02:02,67.06,991.15,1016.93,214,21.06,14.73,-23,1
1593216230,2020-06-27 02:03,67.05,991.15,1016.93,214,21.10,14.76,-23,1
1593216290,2020-06-27 02:04,66.96,991.15,1016.93,214,21.08,14.72,-23,1
1593216350,2020-06-27 02:05,67.13,991.20,1016.98,214,21.03,14.71,-23,1
1593216410,2020-06-27 02:06,67.18,991.13,1016.92,214,21.09,14.78,-23,1
1593216470,2020-06-27 02:07,68.40,990.75,1016.54,214,20.77,14.76,-23,1
1593216530,2020-06-27 02:08,68.47,991.07,1016.86,214,20.74,14.74,-23,1
1593216590,2020-06-27 02:09,68.61,991.14,1016.93,214,20.67,14.71,-23,1
1593216650,2020-06-27 02:10,68.30,991.14,1016.92,214,20.77,14.74,-23,1
1593216710,2020-06-27 02:11,68.11,991.15,1016.93,214,20.82,14.74,-23,1
1593216770,2020-06-27 02:12,67.79,990.88,1016.66,214,20.84,14.69,-23,1
1593216830,2020-06-27 02:13,67.98,991.03,1016.81,214,20.85,14.74,-23,1
1593216891,2020-06-27 02:14,67.97,991.06,1016.84,214,20.79,14.68,-24,1
1593216951,2020-06-27 02:15,68.12,991.05,1016.84,214,20.80,14.72,-23,1
1593217011,2020-06-27 02:16,68.48,991.17,1016.95,214,20.61,14.62,-22,1
1593217071,2020-06-27 02:17,68.58,991.19,1016.97,214,20.63,14.66,-23,1
1593217131,2020-06-27 02:18,68.42,991.28,1017.06,214,20.66,14.66,-23,1
1593217191,2020-06-27 02:19,68.26,991.27,1017.05,214,20.72,14.68,-23,1
1593217251,2020-06-27 02:20,68.62,991.24,1017.02,214,20.68,14.72,-22,1
1593217311,2020-06-27 02:21,67.56,991.21,1016.99,214,20.76,14.56,-23,1
1593217371,2020-06-27 02:22,67.73,991.18,1016.96,214,20.75,14.58,-22,1
1593217432,2020-06-27 02:23,67.83,991.18,1016.97,214,20.74,14.60,-22,1
1593217492,2020-06-27 02:24,67.37,991.18,1016.96,214,20.78,14.53,-22,1
1593217552,2020-06-27 02:25,67.84,991.22,1017.00,214,20.76,14.62,-22,1
1593217612,2020-06-27 02:26,67.87,991.25,1017.03,214,20.74,14.61,-22,1
1593217672,2020-06-27 02:27,67.64,991.22,1017.00,214,20.73,14.55,-22,1
1593217732,2020-06-27 02:28,67.75,991.16,1016.95,214,20.77,14.61,-23,1
1593217792,2020-06-27 02:29,67.67,991.15,1016.93,214,20.74,14.56,-23,1
1593217852,2020-06-27 02:30,67.64,991.13,1016.91,214,20.75,14.57,-23,1
1593217912,2020-06-27 02:31,67.37,991.14,1016.92,214,20.78,14.53,-23,1
1593217972,2020-06-27 02:32,67.53,991.15,1016.94,214,20.76,14.55,-23,1
1593218032,2020-06-27 02:33,67.62,991.15,1016.93,214,20.74,14.55,-23,1
1593218093,2020-06-27 02:34,67.15,991.16,1016.94,214,20.76,14.46,-23,1
1593218153,2020-06-27 02:35,67.38,991.13,1016.92,214,20.77,14.53,-23,1
1593218213,2020-06-27 02:36,67.54,991.10,1016.88,214,20.77,14.56,-23,1
1593218273,2020-06-27 02:37,67.54,991.06,1016.84,214,20.76,14.55,-22,1
1593218333,2020-06-27 02:38,67.39,990.93,1016.71,214,20.77,14.53,-23,1
1593218393,2020-06-27 02:39,67.61,990.99,1016.78,214,20.74,14.55,-24,1
1593218453,2020-06-27 02:40,67.65,990.98,1016.76,214,20.73,14.55,-23,1
1593218513,2020-06-27 02:41,67.41,991.01,1016.80,214,20.76,14.52,-23,1
1593218573,2020-06-27 02:42,67.40,991.07,1016.85,214,20.74,14.50,-23,1
1593218633,2020-06-27 02:43,67.59,991.17,1016.95,214,20.75,14.55,-22,1
1593218696,2020-06-27 02:44,68.11,991.27,1017.06,214,20.70,14.62,-22,1
1593218757,2020-06-27 02:45,68.63,991.36,1017.14,214,20.66,14.70,-23,1
1593218817,2020-06-27 02:46,69.47,991.47,1017.26,214,20.41,14.65,-22,1
1593218877,2020-06-27 02:47,70.01,991.55,1017.34,214,20.26,14.63,-23,1
1593218937,2020-06-27 02:48,70.42,991.69,1017.47,214,20.11,14.58,-23,1
1593218998,2020-06-27 02:49,71.17,991.70,1017.48,214,20.00,14.64,-23,1
1593219058,2020-06-27 02:50,72.00,991.77,1017.56,214,19.82,14.64,-23,1
1593219118,2020-06-27 02:51,72.39,991.78,1017.56,214,19.82,14.73,-22,1
1593219179,2020-06-27 02:52,71.98,991.78,1017.57,214,19.85,14.67,-23,1
1593219239,2020-06-27 02:53,71.55,991.72,1017.50,214,20.01,14.73,-23,1
1593219299,2020-06-27 02:54,71.26,991.59,1017.37,214,20.14,14.79,-23,1
1593219359,2020-06-27 02:55,70.80,991.46,1017.24,214,20.20,14.75,-23,1
1593219420,2020-06-27 02:57,70.17,991.35,1017.13,214,20.28,14.68,-23,1
1593219480,2020-06-27 02:58,69.38,991.30,1017.08,214,20.30,14.53,-23,1
1593219540,2020-06-27 02:59,69.64,991.20,1016.99,214,20.38,14.66,-23,1
1593219601,2020-06-27 03:00,69.37,991.16,1016.95,214,20.41,14.63,-23,1
1593219661,2020-06-27 03:01,69.38,991.17,1016.95,214,20.45,14.67,-23,1
1593219721,2020-06-27 03:02,69.04,991.11,1016.90,214,20.44,14.59,-23,1
1593219781,2020-06-27 03:03,69.14,991.15,1016.93,214,20.46,14.63,-22,1
1593219842,2020-06-27 03:04,69.04,991.16,1016.94,214,20.48,14.62,-22,1
1593219902,2020-06-27 03:05,69.11,991.14,1016.92,214,20.48,14.64,-23,1
1593219962,2020-06-27 03:06,69.45,991.14,1016.92,214,20.42,14.66,-22,1
1593220023,2020-06-27 03:07,69.80,991.18,1016.97,214,20.22,14.54,-23,1
1593220083,2020-06-27 03:08,69.73,991.18,1016.96,214,20.31,14.62,-22,1
1593220143,2020-06-27 03:09,69.52,991.13,1016.91,214,20.36,14.62,-22,1
1593220203,2020-06-27 03:10,69.33,991.09,1016.87,214,20.39,14.60,-23,1
1593220264,2020-06-27 03:11,69.24,991.11,1016.89,214,20.41,14.60,-23,1
1593220324,2020-06-27 03:12,69.17,990.97,1016.76,214,20.43,14.61,-24,1
1593220384,2020-06-27 03:13,69.20,990.98,1016.77,214,20.43,14.61,-23,1
1593220445,2020-06-27 03:14,69.22,990.95,1016.73,214,20.45,14.64,-23,1
1593220505,2020-06-27 03:15,69.40,990.88,1016.67,214,20.46,14.69,-22,1
1593220565,2020-06-27 03:16,69.24,990.94,1016.72,214,20.46,14.65,-23,1
1593220625,2020-06-27 03:17,69.29,990.91,1016.70,214,20.47,14.67,-22,1
1593220686,2020-06-27 03:18,69.31,990.90,1016.69,214,20.48,14.68,-22,1
1593220746,2020-06-27 03:19,68.92,990.92,1016.70,214,20.47,14.59,-23,1
1593220806,2020-06-27 03:20,69.39,990.90,1016.69,214,20.47,14.69,-22,1
1593220867,2020-06-27 03:21,69.58,990.95,1016.73,214,20.44,14.71,-23,1
1593220927,2020-06-27 03:22,69.85,990.95,1016.73,214,20.39,14.72,-22,1
1593220987,2020-06-27 03:23,69.87,990.91,1016.69,214,20.41,14.74,-23,1
1593221047,2020-06-27 03:24,69.99,991.00,1016.78,214,20.38,14.74,-22,1
1593221108,2020-06-27 03:25,69.52,990.99,1016.77,214,20.40,14.66,-24,1
1593221168,2020-06-27 03:26,69.46,991.02,1016.80,214,20.40,14.64,-23,1
1593221228,2020-06-27 03:27,69.42,991.01,1016.80,214,20.43,14.66,-22,1
1593221289,2020-06-27 03:28,69.65,990.99,1016.77,214,20.43,14.71,-22,1
1593221349,2020-06-27 03:29,69.41,990.96,1016.74,214,20.45,14.68,-23,1
1593221409,2020-06-27 03:30,69.23,990.96,1016.75,214,20.44,14.63,-23,1
1593221469,2020-06-27 03:31,69.21,990.99,1016.77,214,20.46,14.64,-23,1
1593221530,2020-06-27 03:32,69.52,991.00,1016.78,214,20.48,14.73,-23,1
1593221590,2020-06-27 03:33,69.60,990.97,1016.75,214,20.50,14.77,-23,1
1593221650,2020-06-27 03:34,69.48,990.99,1016.77,214,20.49,14.73,-22,1
1593221711,2020-06-27 03:35,69.81,991.02,1016.80,214,20.50,14.82,-23,1
1593221771,2020-06-27 03:36,69.73,991.02,1016.81,214,20.51,14.81,-23,1
1593221831,2020-06-27 03:37,70.06,991.02,1016.81,214,20.49,14.86,-23,1
1593221891,2020-06-27 03:38,70.40,991.03,1016.81,214,20.48,14.93,-23,1
1593221952,2020-06-27 03:39,70.73,990.96,1016.74,214,20.47,14.99,-22,1
1593222012,2020-06-27 03:40,70.80,991.02,1016.80,214,20.43,14.97,-23,1
1593222072,2020-06-27 03:41,69.87,991.00,1016.79,214,20.46,14.79,-23,1
1593222133,2020-06-27 03:42,69.96,990.96,1016.74,214,20.47,14.82,-23,1
1593222193,2020-06-27 03:43,69.85,990.99,1016.77,214,20.46,14.79,-22,1
1593222253,2020-06-27 03:44,69.83,991.05,1016.83,214,20.44,14.76,-23,1
1593222313,2020-06-27 03:45,70.25,991.08,1016.86,214,20.32,14.74,-22,1
1593222374,2020-06-27 03:46,70.92,991.17,1016.95,214,20.32,14.89,-22,1
1593222434,2020-06-27 03:47,70.58,991.33,1017.12,214,20.26,14.76,-21,1
1593222494,2020-06-27 03:48,71.25,991.38,1017.16,214,20.18,14.83,-22,1
1593222555,2020-06-27 03:49,72.08,991.42,1017.20,214,19.91,14.75,-22,1
1593222615,2020-06-27 03:50,72.91,991.35,1017.13,214,19.64,14.66,-23,1
1593222675,2020-06-27 03:51,73.11,991.25,1017.04,214,19.66,14.73,-22,1
1593222735,2020-06-27 03:52,73.35,991.24,1017.02,214,19.72,14.83,-24,1
1593222796,2020-06-27 03:53,73.00,991.13,1016.91,214,19.88,14.91,-23,1
1593222856,2020-06-27 03:54,72.90,991.03,1016.81,214,19.96,14.97,-21,1
1593222916,2020-06-27 03:55,72.57,990.99,1016.78,214,20.05,14.99,-23,1
1593222976,2020-06-27 03:56,72.43,990.97,1016.76,214,20.07,14.97,-23,1
1593223037,2020-06-27 03:57,72.45,990.89,1016.67,214,20.16,15.07,-22,1
1593223097,2020-06-27 03:58,72.70,990.95,1016.73,214,20.19,15.15,-23,1
1593223157,2020-06-27 03:59,72.75,990.95,1016.73,214,20.23,15.20,-23,1
1593223218,2020-06-27 04:00,72.58,990.99,1016.78,214,20.24,15.17,-22,1
1593223278,2020-06-27 04:01,72.76,990.96,1016.74,214,20.28,15.25,-22,1
1593223338,2020-06-27 04:02,73.12,990.99,1016.77,214,20.24,15.29,-22,1
1593223399,2020-06-27 04:03,73.42,991.04,1016.82,214,20.15,15.26,-22,1
1593223459,2020-06-27 04:04,72.63,991.05,1016.83,214,20.19,15.13,-22,1
1593223519,2020-06-27 04:05,72.76,991.10,1016.89,214,20.20,15.17,-23,1
1593223579,2020-06-27 04:06,72.29,991.12,1016.91,214,20.19,15.06,-22,1
1593223640,2020-06-27 04:07,71.90,991.10,1016.88,214,20.19,14.98,-23,1
1593223700,2020-06-27 04:08,72.33,991.02,1016.80,214,20.24,15.12,-23,1
1593223760,2020-06-27 04:09,72.35,990.96,1016.74,214,20.26,15.14,-24,1
1593223821,2020-06-27 04:10,72.19,990.90,1016.68,214,20.27,15.12,-23,1
1593223881,2020-06-27 04:11,71.95,990.81,1016.59,214,20.30,15.09,-22,1
1593223941,2020-06-27 04:12,71.96,990.79,1016.57,214,20.30,15.10,-22,1
1593224001,2020-06-27 04:13,72.29,990.74,1016.52,214,20.32,15.19,-22,1
1593224062,2020-06-27 04:14,73.25,990.71,1016.49,214,20.24,15.31,-23,1
1593224122,2020-06-27 04:15,73.56,990.65,1016.43,214,20.25,15.39,-22,1
1593224182,2020-06-27 04:16,73.33,990.64,1016.43,214,20.26,15.35,-23,1
1593224243,2020-06-27 04:17,72.70,990.64,1016.42,214,20.28,15.24,-22,1
1593224303,2020-06-27 04:18,72.67,990.64,1016.43,214,20.28,15.23,-23,1
1593224363,2020-06-27 04:19,72.48,990.63,1016.41,214,20.25,15.16,-23,1
1593224423,2020-06-27 04:20,72.64,990.63,1016.41,214,20.27,15.21,-23,1
1593224484,2020-06-27 04:21,72.22,990.63,1016.41,214,20.26,15.11,-23,1
1593224544,2020-06-27 04:22,72.65,990.69,1016.47,214,20.24,15.19,-22,1
1593224604,2020-06-27 04:23,73.44,990.74,1016.52,214,20.20,15.31,-23,1
1593224665,2020-06-27 04:24,73.46,990.76,1016.55,214,20.11,15.23,-23,1
1593224725,2020-06-27 04:25,73.45,990.81,1016.59,214,20.14,15.26,-24,1
1593224785,2020-06-27 04:26,73.74,990.77,1016.56,214,20.14,15.32,-23,1
1593224845,2020-06-27 04:27,74.06,990.83,1016.61,214,20.15,15.40,-22,1
1593224906,2020-06-27 04:28,74.35,990.84,1016.63,214,20.14,15.45,-23,1
1593224966,2020-06-27 04:29,73.88,990.77,1016.55,214,20.17,15.38,-22,1
1593225026,2020-06-27 04:30,74.05,990.77,1016.55,214,20.17,15.42,-22,1
1593225087,2020-06-27 04:31,74.13,990.61,1016.39,214,20.10,15.37,-22,1
1593225147,2020-06-27 04:32,73.72,990.72,1016.50,214,20.16,15.34,-22,1
1593225207,2020-06-27 04:33,73.87,990.83,1016.61,214,20.17,15.38,-21,1
1593225267,2020-06-27 04:34,73.37,990.89,1016.67,214,20.17,15.27,-23,1
1593225328,2020-06-27 04:35,73.92,990.92,1016.70,214,20.07,15.29,-22,1
1593225388,2020-06-27 04:36,73.89,990.94,1016.72,214,20.10,15.31,-22,1
1593225448,2020-06-27 04:37,74.05,990.96,1016.74,214,20.09,15.34,-23,1
1593225509,2020-06-27 04:38,73.58,990.97,1016.76,214,20.11,15.26,-23,1
1593225569,2020-06-27 04:39,73.80,991.01,1016.79,214,20.12,15.31,-21,1
1593225629,2020-06-27 04:40,73.68,991.06,1016.84,214,20.13,15.30,-22,1
1593225689,2020-06-27 04:41,73.83,991.10,1016.88,214,20.13,15.33,-23,1
1593225750,2020-06-27 04:42,74.06,991.09,1016.88,214,20.14,15.39,-23,1
1593225810,2020-06-27 04:43,74.24,991.03,1016.82,214,20.14,15.43,-22,1
1593225870,2020-06-27 04:44,74.58,991.08,1016.86,214,20.15,15.51,-24,1
1593225930,2020-06-27 04:45,74.64,991.21,1016.99,214,20.02,15.39,-23,1
1593225991,2020-06-27 04:46,74.46,991.26,1017.04,214,20.02,15.36,-23,1
1593226051,2020-06-27 04:47,74.24,991.29,1017.07,214,20.05,15.34,-23,1
1593226111,2020-06-27 04:48,74.38,991.28,1017.07,214,20.08,15.40,-21,1
1593226172,2020-06-27 04:49,74.88,991.30,1017.08,214,20.09,15.51,-22,1
1593226232,2020-06-27 04:50,74.64,991.32,1017.10,214,20.08,15.45,-22,1
1593226292,2020-06-27 04:51,74.44,991.30,1017.08,214,20.00,15.33,-22,1
1593226352,2020-06-27 04:52,74.67,991.36,1017.15,214,20.03,15.41,-23,1
1593226413,2020-06-27 04:53,74.35,991.31,1017.09,214,20.07,15.38,-24,1
1593226473,2020-06-27 04:54,74.70,991.21,1016.99,214,20.08,15.47,-23,1
1593226533,2020-06-27 04:55,74.65,991.17,1016.96,214,20.08,15.46,-22,1
1593226594,2020-06-27 04:56,74.45,991.15,1016.93,214,20.09,15.42,-23,1
1593226654,2020-06-27 04:57,73.84,991.04,1016.83,214,20.13,15.33,-22,1
1593226714,2020-06-27 04:58,73.45,991.01,1016.79,214,20.13,15.25,-23,1
1593226774,2020-06-27 04:59,74.37,991.00,1016.79,214,20.11,15.43,-21,1
1593226835,2020-06-27 05:00,72.84,991.04,1016.82,214,20.13,15.12,-22,1
1593226895,2020-06-27 05:01,73.56,991.05,1016.83,214,20.12,15.26,-23,1
1593226955,2020-06-27 05:02,74.08,991.07,1016.85,214,20.09,15.34,-22,1
1593227016,2020-06-27 05:03,74.28,991.06,1016.85,214,20.10,15.40,-23,1
1593227076,2020-06-27 05:04,74.19,991.04,1016.82,214,20.10,15.38,-22,1
1593227136,2020-06-27 05:05,74.64,991.00,1016.78,214,20.09,15.46,-23,1
1593227197,2020-06-27 05:06,74.66,991.01,1016.79,214,20.02,15.40,-23,1
1593227257,2020-06-27 05:07,74.65,991.01,1016.80,214,20.00,15.38,-23,1
1593227317,2020-06-27 05:08,74.82,991.04,1016.83,214,20.02,15.43,-22,1
1593227377,2020-06-27 05:09,74.72,991.13,1016.91,214,19.98,15.37,-21,1
1593227438,2020-06-27 05:10,74.73,991.11,1016.89,214,19.93,15.33,-23,1
1593227498,2020-06-27 05:11,74.97,991.07,1016.85,214,19.96,15.40,-23,1
1593227558,2020-06-27 05:12,74.58,991.01,1016.80,214,19.96,15.32,-23,1
1593227618,2020-06-27 05:13,74.75,991.04,1016.82,214,19.97,15.37,-23,1
1593227679,2020-06-27 05:14,74.90,990.93,1016.72,214,19.98,15.41,-22,1
1593227739,2020-06-27 05:15,74.89,990.94,1016.73,214,19.98,15.41,-23,1
1593227799,2020-06-27 05:16,74.68,990.87,1016.65,214,19.99,15.37,-22,1
1593227860,2020-06-27 05:17,74.43,990.76,1016.54,214,20.01,15.34,-22,1
1593227920,2020-06-27 05:18,74.41,990.80,1016.58,214,20.01,15.34,-23,1
1593227980,2020-06-27 05:19,74.39,990.85,1016.64,214,19.98,15.30,-23,1
1593228040,2020-06-27 05:20,74.23,990.93,1016.72,214,19.99,15.28,-21,1
1593228101,2020-06-27 05:21,74.23,990.97,1016.75,214,20.00,15.29,-23,1
1593228161,2020-06-27 05:22,74.55,990.91,1016.69,214,19.97,15.33,-23,1
1593228221,2020-06-27 05:23,74.85,990.86,1016.64,214,19.97,15.39,-22,1
1593228282,2020-06-27 05:24,74.89,990.86,1016.65,214,19.94,15.37,-23,1
1593228342,2020-06-27 05:25,75.06,990.92,1016.70,214,19.94,15.40,-23,1
1593228402,2020-06-27 05:26,75.29,990.86,1016.64,214,19.94,15.45,-23,1
1593228462,2020-06-27 05:27,75.23,990.84,1016.62,214,19.92,15.42,-22,1
1593228523,2020-06-27 05:28,74.60,990.86,1016.64,214,19.93,15.30,-23,1
1593228583,2020-06-27 05:29,74.18,990.81,1016.59,214,19.97,15.25,-23,1
1593228643,2020-06-27 05:30,74.04,990.81,1016.59,214,19.91,15.16,-22,1
1593228704,2020-06-27 05:31,73.94,990.84,1016.62,214,19.93,15.16,-22,1
1593228764,2020-06-27 05:32,74.01,990.86,1016.65,214,19.95,15.20,-23,1
1593228824,2020-06-27 05:33,73.85,990.86,1016.64,214,19.97,15.18,-24,1
1593228884,2020-06-27 05:34,73.87,990.84,1016.62,214,19.97,15.19,-23,1
1593228945,2020-06-27 05:35,73.55,990.89,1016.67,214,19.96,15.11,-23,1
1593229005,2020-06-27 05:36,73.61,990.87,1016.65,214,19.99,15.15,-23,1
1593229065,2020-06-27 05:37,73.93,990.90,1016.68,214,19.97,15.20,-21,1
1593229126,2020-06-27 05:38,74.54,990.87,1016.65,214,19.89,15.25,-22,1